sat.trackr.live / text

‹ back to catalog

NINGXIA-1 7

NORAD 49019 · 2021-064B

PAYLOAD ACTIVE UNKNOWN

§ Identity

Operator
Country
PRC
Launch date
2021-07-09
Launch site
TAISC
Launch vehicle
Mass (kg)
RCS (m²)

External: N2YO · Heavens-Above · Gunter

§ Orbital elements

Epoch: 2026-09-10T03:51:38.753280Z

Period
102.23 min
Inclination
45.0010°
Eccentricity
0.0008089
Mean motion
14.08558644 rev/d
Perigee alt
858.4 km
Apogee alt
870.2 km
Semi-major
7,242.4 km
B*
-1.8794e-5
RAAN
203.4506°
Arg perigee
286.5763°
Mean anomaly
73.4185°
Rev number
26,622

§ Raw data

NINGXIA-1 71 49019U 21064B   26253.16086520 -.00000164  00000+0 -18794-4 0  99972 49019  45.0010 203.4506 0008089 286.5763  73.4185 14.08558644266228

JSON: /api/v1/satellites/49019 · /tle

For live sub-satellite position, see the globe view (requires WebGL).

§ Visibility from observer

Set your observer location to see the next 7 days of passes ≥ 10°. The values pass through the URL so the page stays shareable.

No JS? Fill the form by hand. The geolocation button needs JavaScript.